Regional Weather Roundup
Issued by NWS Upton, NY

Current Version | Previous Version | Text Only | Print | Product List | Glossary On
Versions: 1 2 3 4 5 6 7 8 9 10 11 12 13 14 15 16 17 18 19 20 21 22 23 24 25 26 27 28 29 30 31 32 33 34 35 36 37 38 39 40 41 42 43 44 45 46 47 48 49 50
000 ASUS41 KOKX 290907 RWROKX REGIONAL WEATHER ROUNDUP NATIONAL WEATHER SERVICE NEW YORK NY 500 AM EDT SUN MAR 29 2015 NOTE: "FAIR" INDICATES FEW OR NO CLOUDS BELOW 12,000 FEET WITH NO SIGNIFICANT WEATHER AND/OR OBSTRUCTIONS TO VISIBILITY. NYZ071-072-176-178-NJZ106-104-291000- NEW YORK CITY METRO AREA CITY SKY/WX TMP DP RH WIND PRES REMARKS CENTRAL PARK CLOUDY 26 8 46 VRB5 30.19R WCI 20 LAGUARDIA APRT MOCLDY 27 11 51 NW16G23 30.17R WCI 15 KENNEDY INTL MOCLDY 27 8 44 NW17 30.17R WCI 14 NEWARK/LIBERTY CLOUDY 26 9 48 N15 30.19R WCI 14 BRNX BOT. GARD N/A N/A N/A N/A NW9 30.18R TETERBORO CLOUDY 26 9 48 NW10 30.17R WCI 16 $$ NYZ177-179-078>081-291000- LONG ISLAND NEW YORK CITY SKY/WX TMP DP RH WIND PRES REMARKS FARMINGDALE CLOUDY 26 10 50 N10 30.15R WCI 16 ISLIP CLOUDY 26 14 60 NW14 30.11R WCI 14 SHIRLEY CLOUDY 27 18 69 NW13 30.13R WCI 16 WESTHAMPTON CLOUDY 27 17 66 N13 30.12R WCI 16 MONTAUK POINT N/A 28 16 60 N13 30.11R WCI 17 $$ NYZ052-065-067-291000- HUDSON VALLEY CITY SKY/WX TMP DP RH WIND PRES REMARKS WHITE PLAINS MOCLDY 24 7 48 NW14G20 30.13R WCI 12 NEWBURGH PTCLDY 21 9 58 NW6 30.16R WCI 14 MONTGOMERY CLEAR 21 3 45 NW6 30.15R WCI 13 POUGHKEEPSIE CLEAR 22 8 55 CALM 30.17R ALBANY CLEAR 13 5 70 CALM 30.19R $$ NJZ001-105-106-008-010-013-015-019>022-104-291000- NEW JERSEY CITY SKY/WX TMP DP RH WIND PRES REMARKS NEWARK/LIBERTY CLOUDY 26 9 48 N15 30.19R WCI 14 TETERBORO CLOUDY 26 9 48 NW10 30.17R WCI 16 CALDWELL CLOUDY 25 2 37 VRB3 30.18R MORRISTOWN CLOUDY 27 3 36 N7 30.18R WCI 19 SOMERVILLE MOCLDY 26 3 37 N6 30.18R WCI 19 SUSSEX CLEAR 21 6 52 NW8 30.17R WCI 11 ANDOVER N/A 21 6 52 N7 30.17R WCI 12 TRENTON CLOUDY 26 5 40 N12 30.18R WCI 16 MILLVILLE MOCLDY 26 7 44 NW10 30.21R WCI 16 ATLANTIC CITY CLOUDY 27 6 41 NW12 30.19R WCI 17 WRIGHTSTOWN PTCLDY 25 5 43 NW9 30.17R WCI 15 TOMS RIVER PTCLDY 25 7 46 NW9 30.18R WCI 15 BELMAR MOCLDY 25 9 50 NW15 30.16R WCI 12 $$ PAZ047>061-062-071-291000- EASTERN PENNSYLVANIA CITY SKY/WX TMP DP RH WIND PRES REMARKS PHILADELPHIA PTCLDY 26 5 40 NW10 30.23R WCI 16 ALLENTOWN CLEAR 22 5 48 NW3 30.21R SCRANTON PTCLDY 20 6 55 N5 30.19R WCI 13 $$ CTZ002-004>006-009-010-012-RIZ004-006-007-MAZ004-011-015-291000- SOUTHERN NEW ENGLAND IN CT CITY SKY/WX TMP DP RH WIND PRES REMARKS BRADLEY INTL CLOUDY 25 8 48 NW7 30.12R WCI 17 HARTFORD CLOUDY 26 9 48 N8 30.14R WCI 18 DANBURY CLOUDY 23 3 42 N8 30.14R WCI 14 WTRBRY/OXFORD CLOUDY 21 3 45 N12 30.10R WCI 9 BRIDGEPORT CLOUDY 27 12 53 N9 30.14R WCI 18 MERIDEN CLOUDY 26 12 55 NW10 30.13R WCI 16 NEW HAVEN CLOUDY 27 14 58 N7 30.12R WCI 19 CHESTER CLOUDY 27 14 59 N9 30.09R WCI 17 GROTON CLOUDY 26 12 55 N12 30.10R WCI 16 WILLIMANTIC CLOUDY 25 8 48 N8 30.11R WCI 16 IN RI CITY SKY/WX TMP DP RH WIND PRES REMARKS PROVIDENCE CLOUDY 25 12 58 N9 30.10R WCI 15 BLOCK ISLAND CLOUDY 27 16 63 N16G23 30.07R WCI 14 WESTERLY CLOUDY 24 16 71 N10 30.10R WCI 14 IN MA CITY SKY/WX TMP DP RH WIND PRES REMARKS BOSTON CLOUDY 26 8 46 NW10 30.10R WCI 16 WORCESTER MOCLDY 21 4 47 NW12 30.05R WCI 9 WESTFIELD PTCLDY 22 9 57 CALM 30.13R PROVINCETOWN CLEAR 30 19 64 N14G20 30.07R WCI 20 NANTUCKET CLOUDY 31 25 78 N20 30.04R WCI 19 $$ ANZ330-335-338-340-345-350-353-355-291000- COASTAL MARINE OBSERVATIONS STATION/POSITION TIME SKY/WX TEMP WIND PRES VSBY WAVE AIR SEA DIR/SP/G HT/PER (UTC) (F) (DEG/KT/KT) (MB) (MI) (FT/S) NY HARB ENTRANCE 0850 29 38 340/ 17/ 21 1020.4 3/11 4S FIRE IS 0803 37 N/A 4/10 20S FIRE ISLAND 0750 38 1020.0 5/11 23SW MTP 0850 N/A 6/ 5 HUDSON CANYON NOT AVBL EXECUTION ROCKS NOT AVBL WESTERN LI SOUND NOT AVBL CENTRAL LI SOUND NOT AVBL EASTERN LI SOUND NOT AVBL ROBBINS REEF NOT AVBL $$ >>>>>>>>>>>>>>>>>>>>>>>>>>>> KEY <<<<<<<<<<<<<<<<<<<<<<<<<<< > < > SKY/WX - SKY CONDITION/PRESENT WEATHER < > TMP - TEMPERATURE IN FAHRENHEIT < > DP - DEWPOINT IN FAHRENHEIT < > RH - RELATIVE HUMIDITY IN PERCENT < > WIND - DIRECTION AND SPEED IN MPH < > PRES - MEAN SEA LEVEL PRESSURE IN INCHES OF HG < > WCI - WIND CHILL INDEX < > VSB - VISIBILITY IN MILES < > HX - HEAT INDEX < > TC - TEMPERATURE IN CELSIUS < > VRB - VARIABLE WIND DIRECTION < > < >>>>>>>>>>>>>>>>>>>>>>>>>>>> KEY <<<<<<<<<<<<<<<<<<<<<<<<<<<

USA.gov is the U.S. government's official web portal to all federal, state and local government web resources and services.